sat.trackr.live / text

‹ back to catalog

STARLINK-6158

NORAD 56375 · 2023-061B

PAYLOAD ACTIVE UNKNOWN

§ Identity

Operator
Country
US
Launch date
2023-05-04
Launch site
AFETR
Launch vehicle
Mass (kg)
RCS (m²)

Purposes: comms

External: N2YO · Heavens-Above · Gunter

§ Orbital elements

Epoch: 2026-09-19T04:19:13.537920Z

Period
94.27 min
Inclination
43.0034°
Eccentricity
0.0001272
Mean motion
15.27585796 rev/d
Perigee alt
482.2 km
Apogee alt
483.9 km
Semi-major
6,861.2 km
B*
-7.9584e-5
RAAN
184.9886°
Arg perigee
262.4644°
Mean anomaly
97.6063°
Rev number
18,634

§ Raw data

STARLINK-61581 56375U 23061B   26262.18001780 -.00002452  00000+0 -79584-4 0  99922 56375  43.0034 184.9886 0001272 262.4644  97.6063 15.27585796186344

JSON: /api/v1/satellites/56375 · /tle

For live sub-satellite position, see the globe view (requires WebGL).

§ Visibility from observer

Set your observer location to see the next 7 days of passes ≥ 10°. The values pass through the URL so the page stays shareable.

No JS? Fill the form by hand. The geolocation button needs JavaScript.